User: anonymous   Login
Location: Kapla
(46.2483°N, 15.0094°E)
Time: 11:40:42
(UTC+00:00)
Language:

ERS-2 - Orbit

View from above orbital plane
View from above orbital plane
View from above satellite
View from above satellite

Ground track
Ground track

The orbit data is extracted from the following two-line orbital elements,

1 23560U 95021A   21131.56345087  .00000841  00000-0  38594-4 0  9995
2 23560  98.5515 336.5751 0004427 122.2477 237.9187 15.23889141392073
Epoch (UTC): 11 May 2021 13:31:22
Eccentricity: 0.0004427
inclination: 98.5515°
perigee height: 491 km
apogee height: 497 km
right ascension of ascending node: 336.5751°
argument of perigee: 122.2477°
revolutions per day: 15.23889141
mean anomaly at epoch: 237.9187°
orbit number at epoch: 39207

The dashed part of the orbit path shows where the satellite is in the earth's shadow,  

DLR